RH
19 20 21 25 28 31 35 36 42 44 45 49 41 41 46 46 52 55 61 69 79 87 89 95 100 102 104 105 105 105 102 99 98 98 103 105 101 98 97 96 96 95 92 88 83 80 77 73 71 69 67 67 67 66 63 59 54 49 44 40 36 33 28 24 21 18 15 13 12 12 12 13 14 14 15 16 17 17 17 17 17 17 16 16 16 15 15 15 15 15 15 15 15 14 14 14 14
16 18 19 21 24 27 31 33 41 43 44 48 41 42 44 43 47 50 55 58 61 66 69 74 79 82 85 88 89 91 91 88 89 90 91 91 91 91 89 87 88 89 87 84 80 78 76 73 72 70 70 69 66 62 57 52 47 43 38 34 29 25 21 19 16 15 13 14 15 17 18 19 19 19 19 18 18 17 16 16 15 14 14 14 13 13 13 12 12 12 12 12 12 12 12 12 12
18 18 19 21 22 24 28 30 35 37 39 43 39 39 39 40 44 47 53 58 61 64 67 70 72 74 75 79 77 78 80 80 83 84 86 84 84 86 85 85 86 86 85 82 80 78 76 74 72 69 65 59 54 50 46 44 41 36 31 26 22 20 18 16 15 16 17 19 21 22 21 20 19 18 17 16 16 15 15 14 13 13 12 12 12 11 11 11 11 11 11 10 10 10 10 10 10
20 21 21 22 23 24 25 26 29 30 32 35 34 31 32 35 37 40 45 48 52 55 58 61 66 69 72 76 74 76 77 78 80 81 82 78 75 76 74 74 73 72 71 68 65 63 60 58 55 51 47 43 41 39 38 36 32 28 24 21 20 18 16 17 20 22 23 23 22 21 19 18 17 17 16 15 15 14 14 14 13 13 12 12 11 11 11 11 10 10 10 9 10 9 9 9 9
21 21 22 22 24 24 24 25 25 26 26 28 29 27 28 31 31 35 37 38 40 40 41 43 48 50 53 56 56 60 62 63 65 65 65 61 58 56 53 52 51 49 47 45 43 41 39 37 36 35 34 35 35 34 32 29 25 23 21 20 18 17 19 23 25 25 23 21 20 19 18 17 17 16 16 15 15 15 14 14 14 13 13 12 12 11 11 11 10 10 10 9 9 9 9 9 9
20 20 21 21 22 22 23 24 23 24 24 24 26 26 26 27 29 31 31 32 31 31 31 31 33 35 36 37 39 41 42 43 44 44 43 41 39 37 36 35 34 33 31 30 29 28 27 27 28 29 30 30 30 28 26 25 23 22 20 18 18 21 24 26 24 22 21 20 19 19 18 18 17 16 16 16 15 15 14 14 13 13 13 12 12 11 11 11 10 10 10 9 9 9 9 8 8
21 22 22 22 23 23 23 24 23 24 24 24 25 25 25 25 26 27 26 26 26 25 25 25 25 26 27 27 28 29 29 29 29 29 29 28 28 27 27 26 26 26 26 25 25 25 25 25 26 27 27 27 26 26 25 23 22 20 18 19 23 26 26 24 22 21 20 20 19 19 19 18 18 17 17 16 16 15 15 14 14 14 13 13 12 12 12 11 11 11 10 10 9 9 9 9 8
23 24 24 25 25 25 26 26 26 27 26 27 27 28 28 29 29 29 29 28 28 27 26 26 27 26 27 27 27 26 26 26 26 27 27 27 27 27 27 27 27 27 27 27 26 27 27 27 27 27 27 27 27 25 24 22 20 18 20 25 27 26 24 22 21 21 20 21 20 20 20 19 19 18 18 17 17 16 16 15 15 14 14 14 13 13 13 12 12 11 11 11 10 10 10 9 9
24 25 25 26 27 27 27 28 29 29 30 30 30 31 32 33 33 33 33 33 33 33 33 33 33 33 32 32 32 31 31 31 31 31 31 31 30 30 30 30 30 30 31 30 31 31 31 31 30 30 29 28 26 24 22 20 18 20 26 29 27 25 23 22 22 22 22 22 21 21 21 20 20 19 19 18 18 17 17 16 16 16 15 15 14 14 13 13 13 12 12 11 11 11 10 10 10
26 27 28 29 30 30 31 32 32 33 33 33 33 34 35 36 35 35 36 36 36 36 37 37 36 36 36 36 35 35 35 34 34 34 34 34 33 33 33 33 34 35 36 36 36 35 35 34 33 32 29 27 25 23 21 20 22 27 31 29 27 25 24 23 23 23 23 22 22 22 21 21 20 20 20 19 19 18 18 17 17 16 16 15 15 14 14 14 13 13 12 12 12 11 11 11 10
30 31 32 33 34 35 36 36 37 37 38 37 38 38 38 38 37 38 38 37 38 38 38 38 39 38 39 38 37 37 36 36 35 35 35 35 35 36 36 38 39 40 41 40 40 39 37 35 33 31 28 26 25 23 22 25 30 33 32 29 27 26 25 25 25 24 24 23 23 22 22 22 21 21 20 20 19 18 18 17 16 16 15 15 14 14 14 13 13 13 12 12 12 11 11 11 11
35 36 36 37 38 39 40 40 40 40 40 40 41 41 40 40 40 39 39 39 38 39 40 40 41 41 42 40 39 39 38 37 36 37 37 38 39 40 41 42 43 43 43 42 40 39 37 34 32 30 29 27 26 27 29 33 35 34 32 29 28 27 27 26 26 25 24 24 24 23 23 22 22 21 20 20 19 18 17 16 16 15 15 14 14 14 13 13 12 12 12 11 11 11 11 10 10
38 39 39 40 40 41 42 42 42 42 41 41 42 41 41 41 41 40 40 40 39 41 42 44 45 45 45 43 41 40 39 39 38 39 41 42 44 44 45 44 44 43 41 40 39 37 36 34 33 31 30 30 31 33 36 37 36 34 32 30 29 28 27 27 26 26 25 25 24 24 23 22 22 21 20 19 18 17 16 16 15 14 14 14 13 13 12 12 12 11 11 10 10 10 10 10 9
40 40 41 41 41 41 42 41 41 41 41 40 41 41 41 42 43 43 42 42 42 45 47 48 49 49 48 45 43 40 40 40 41 43 45 46 47 46 45 44 42 41 40 39 39 37 37 36 35 34 34 35 37 38 38 37 35 33 32 30 29 28 28 27 26 25 25 25 24 24 23 22 21 20 19 18 17 16 15 15 14 14 13 13 12 12 12 11 11 10 10 10 10 9 9 9 9
40 40 40 40 39 40 39 39 38 38 37 37 39 41 43 45 46 47 48 50 50 51 53 53 52 53 50 46 44 42 40 41 43 46 48 48 48 46 45 43 42 41 41 40 40 40 39 39 38 38 39 40 40 39 39 37 35 33 32 31 30 29 28 27 26 26 25 24 24 23 22 21 20 19 18 17 16 15 14 14 13 13 12 12 12 11 11 10 10 10 10 9 9 9 9 8 8
39 38 39 38 36 36 36 36 34 31 30 32 39 44 48 49 50 54 56 59 61 59 57 55 54 54 51 46 43 43 44 44 46 47 48 48 47 47 46 45 45 44 44 44 44 44 43 42 42 43 43 43 41 40 39 37 36 34 33 31 30 29 28 28 27 26 25 24 23 22 21 20 19 18 17 16 15 14 14 13 12 12 11 11 11 10 10 10 10 10 9 9 9 8 8 8 8
29 27 27 26 24 25 26 27 24 22 20 22 31 41 51 53 57 65 65 64 66 64 58 55 56 54 50 45 44 48 50 49 48 48 47 48 48 49 48 48 48 47 47 48 47 47 46 46 46 46 44 43 42 40 39 37 36 34 33 31 30 29 28 28 27 26 25 24 23 22 20 19 18 17 16 15 14 14 13 13 12 11 11 10 10 10 10 10 10 9 9 9 9 8 8 8 8
12 11 10 10 9 10 11 11 11 12 13 17 28 47 63 65 71 77 72 70 69 64 58 56 58 54 49 47 48 52 55 53 50 49 49 50 50 51 51 51 50 50 50 50 50 49 49 48 48 47 45 44 42 41 40 38 37 36 34 33 31 30 29 28 27 26 24 23 22 21 20 19 18 17 16 15 14 14 13 13 12 12 11 11 10 10 10 10 10 9 9 8 8 8 8 8 8
4 4 5 5 5 6 6 7 8 13 21 33 50 73 84 79 83 86 78 75 70 66 62 59 60 57 51 52 53 54 56 56 55 53 52 52 52 52 52 53 52 52 52 52 52 52 51 49 49 48 46 44 43 42 41 40 39 38 36 34 33 31 29 28 27 25 24 23 22 20 19 18 17 17 16 15 15 14 14 13 13 12 12 12 11 11 10 10 10 10 9 9 8 8 8 7 7
4 5 7 7 9 10 12 17 26 43 60 74 86 96 97 89 90 90 82 77 68 66 68 64 64 61 56 56 57 58 58 58 58 56 55 54 54 53 54 54 54 54 54 55 54 53 52 51 50 48 47 45 44 43 42 42 42 40 38 36 34 32 30 29 27 25 24 22 21 20 19 18 17 17 17 16 15 14 14 13 13 13 12 12 12 11 11 10 10 10 10 10 9 8 8 7 7
7 8 10 12 16 19 27 42 60 81 94 98 104 106 102 94 90 85 78 74 66 63 65 64 65 64 62 61 61 60 59 58 57 57 56 56 56 56 56 56 56 56 56 56 55 54 53 52 51 49 48 47 45 44 43 43 43 42 40 38 36 34 32 30 28 25 24 22 21 20 19 19 18 18 18 17 16 15 15 14 14 14 13 13 12 12 11 11 11 10 10 10 10 10 9 8 8
10 13 16 22 30 37 51 73 89 97 101 103 108 106 96 89 84 76 71 71 69 63 62 64 66 66 66 64 63 61 60 60 58 58 58 58 60 60 59 59 58 57 57 57 56 55 54 53 51 50 49 47 46 45 44 43 42 41 39 38 36 34 32 30 28 26 24 23 22 21 21 20 19 19 19 18 17 16 16 16 15 15 14 14 13 12 12 11 11 10 10 10 10 10 9 9 9
19 24 30 40 52 64 79 94 102 103 104 107 107 98 87 81 75 67 67 70 72 69 66 67 66 66 65 64 63 63 62 62 62 61 61 61 61 61 61 61 60 59 58 58 56 55 54 53 51 50 49 48 47 46 44 43 40 39 37 36 34 33 31 29 28 26 25 24 23 22 21 21 20 20 19 19 18 18 18 18 17 17 16 15 14 13 12 11 11 10 10 10 10 10 9 9 9
34 41 48 60 74 86 95 97 100 100 99 99 97 89 82 79 74 68 68 71 73 72 71 69 66 65 64 63 63 63 62 62 62 62 62 63 62 62 62 61 60 59 59 58 56 56 55 53 52 51 49 48 47 46 44 42 39 36 35 34 33 32 31 29 28 27 25 24 23 22 22 22 21 21 21 21 20 20 20 19 18 17 16 15 14 13 12 12 11 10 10 9 10 9 9 9 9
50 58 65 75 83 89 90 89 90 89 87 88 87 84 81 79 77 74 73 73 73 71 68 66 64 63 62 62 62 62 62 61 62 62 62 62 62 61 60 60 59 58 58 56 55 55 54 52 52 50 48 47 46 45 42 40 37 35 34 33 33 32 31 30 28 27 26 24 24 23 24 24 23 23 23 22 21 20 19 18 17 16 15 14 13 13 12 11 10 10 9 9 9 8 8 8 8
67 73 76 79 81 82 82 82 83 82 81 81 80 79 78 77 76 75 73 70 70 69 67 66 65 64 63 63 62 62 63 63 63 63 63 63 61 61 60 59 58 58 57 55 54 53 51 51 50 49 47 47 45 43 41 39 38 36 35 34 33 33 31 30 29 28 27 26 25 24 24 24 23 23 22 22 21 20 19 17 16 15 14 13 12 12 11 10 10 9 9 8 8 8 8 7 8
80 82 82 81 80 81 81 80 79 78 78 77 77 78 77 77 76 74 75 73 71 73 73 71 71 72 72 70 69 68 67 67 66 65 65 64 62 61 60 59 58 57 56 54 53 51 50 50 49 48 47 47 45 43 41 40 38 37 36 34 33 32 31 31 31 30 28 27 26 25 24 24 23 22 22 21 20 19 18 17 15 14 13 13 12 11 10 10 9 9 8 8 7 7 7 7 6
96 95 96 94 92 95 95 93 91 91 91 90 92 94 91 88 84 79 81 83 79 78 77 75 75 76 75 74 72 71 70 69 67 66 66 65 64 63 61 60 59 58 57 56 54 52 51 50 48 47 46 45 43 41 40 37 36 35 34 33 32 32 31 31 30 29 28 27 26 25 24 24 23 22 21 20 19 18 17 15 14 13 12 12 11 10 9 9 8 8 7 7 7 6 6 6 6
102 101 103 101 99 103 104 102 102 102 102 103 104 104 99 94 90 83 81 83 82 79 78 77 76 75 74 73 71 70 69 68 67 66 65 64 64 63 62 61 59 58 57 55 54 52 50 49 47 46 44 42 40 38 36 35 34 33 33 32 31 31 30 30 29 29 28 27 26 25 24 23 21 20 19 18 17 16 15 14 13 12 11 10 10 9 8 8 7 7 7 6 6 6 6 5 5
100 99 101 99 92 92 97 101 101 98 95 93 93 95 92 89 87 83 79 78 77 76 75 74 74 74 73 72 71 70 68 67 66 64 63 62 61 60 59 57 56 55 53 52 50 49 47 45 44 42 41 39 36 36 35 34 33 32 32 31 31 30 30 29 28 27 26 25 24 22 21 20 19 17 17 16 15 14 13 12 11 10 10 9 8 8 7 7 7 6 6 6 5 5 5 5 5
94 92 91 91 87 82 82 86 86 85 83 80 79 81 79 80 81 79 77 75 73 73 71 70 69 68 68 67 67 66 65 63 62 61 59 58 57 55 54 52 51 49 48 47 45 44 42 41 39 38 38 36 35 34 34 33 32 32 31 30 29 28 27 26 25 23 22 21 20 19 18 17 16 15 14 13 12 12 11 10 9 9 8 8 7 7 7 6 6 6 6 6 6 5 5 5 5
90 89 89 88 91 90 85 86 88 87 86 83 82 81 78 77 79 79 78 76 73 72 69 68 66 65 64 64 63 61 60 58 56 55 54 52 51 49 48 47 45 44 43 42 41 40 39 38 37 36 35 34 34 33 32 32 30 30 28 27 26 24 23 22 20 20 18 18 17 16 15 14 13 12 11 11 10 9 9 9 8 8 8 7 7 7 7 6 6 6 6 6 6 6 6 6 6
98 100 101 98 99 100 98 97 95 92 91 89 86 85 83 81 81 78 75 74 72 70 68 67 65 63 61 60 58 56 54 53 51 50 49 48 47 45 44 43 42 41 40 39 38 37 36 35 35 34 33 32 31 30 29 27 26 25 23 22 21 20 19 18 17 16 15 15 14 13 12 11 11 10 9 9 8 8 8 8 8 8 8 8 8 8 7 7 7 7 6 6 6 6 6 5 5
96 95 95 94 93 92 91 88 84 82 81 80 78 76 75 74 72 69 67 66 64 63 61 60 58 56 54 53 51 50 48 47 46 45 44 44 43 41 41 39 38 37 36 35 35 34 33 32 31 30 29 27 26 25 23 22 21 20 19 18 17 16 15 14 14 13 12 12 11 11 10 9 9 9 9 8 8 9 9 10 9 9 9 9 9 8 8 7 7 6 5 5 5 4 4 4 4
86 85 83 82 80 79 78 76 73 72 70 68 66 64 62 61 59 58 57 56 55 53 52 50 50 48 47 46 45 45 43 42 42 41 40 39 38 38 37 36 35 34 33 32 30 29 28 27 26 24 23 22 21 20 18 17 16 15 14 14 13 12 12 11 11 10 10 10 9 10 9 10 10 9 10 10 10 10 10 10 10 10 9 8 8 7 6 6 5 5 4 4 3 3 3 3 3
75 74 72 70 69 67 65 63 61 59 58 57 55 53 52 51 49 48 47 46 45 44 44 43 42 42 41 41 40 39 39 38 37 37 36 35 34 33 32 31 30 29 28 26 25 24 22 21 20 19 18 17 16 15 14 13 13 12 11 11 11 11 10 10 10 10 10 10 11 11 11 11 11 11 11 10 10 9 9 9 8 7 6 6 5 5 4 4 4 3 3 3 2 2 2 2 2
62 60 58 56 55 55 52 50 48 47 47 46 45 44 43 42 42 41 40 40 39 38 38 37 37 36 36 35 35 34 33 33 32 31 31 30 29 28 27 26 25 24 22 21 20 19 18 17 16 16 15 14 13 13 12 12 12 12 12 12 12 12 11 12 12 12 12 11 11 11 11 10 9 9 8 8 7 6 6 5 5 5 4 4 3 3 3 3 3 3 2 2 2 2 2 2 2
48 47 45 44 43 43 42 41 39 39 39 38 39 39 38 37 36 35 35 34 34 33 33 32 32 31 30 30 29 29 28 27 26 25 25 24 23 22 21 20 19 19 18 18 18 17 17 17 17 17 16 16 16 15 15 15 15 15 15 15 14 14 13 13 12 11 11 10 9 8 8 7 6 6 5 5 4 4 4 3 4 3 3 3 3 3 3 2 3 2 2 2 2 2 2 2 2
39 39 38 38 38 37 38 38 36 34 33 33 32 32 32 31 29 28 28 27 26 26 25 25 24 23 23 23 22 21 20 20 19 19 19 18 19 19 19 19 20 20 21 22 22 22 22 22 22 21 21 20 19 19 19 18 18 17 17 16 15 14 12 11 10 8 7 7 6 5 5 4 4 4 3 4 3 3 3 3 3 3 3 3 3 3 3 2 3 2 2 2 2 3 2 2 3
35 34 34 33 32 31 31 31 31 29 27 26 25 25 26 26 25 22 20 20 20 19 19 19 18 18 18 18 18 18 18 19 20 21 22 23 24 24 25 25 26 26 27 27 27 26 26 25 24 23 22 21 20 19 18 17 16 15 13 12 10 9 8 7 6 5 5 4 4 4 4 4 3 3 3 3 3 3 3 3 3 3 3 3 3 3 3 3 3 2 2 2 2 3 2 3 3
28 27 27 26 26 25 24 23 24 25 24 23 22 23 26 28 28 25 21 21 21 20 21 22 23 24 24 24 24 24 25 26 26 26 26 25 25 24 23 23 22 22 21 21 21 20 19 18 18 17 16 15 14 13 12 11 10 8 8 7 6 6 5 5 5 5 5 4 4 4 4 4 3 3 4 3 3 3 3 3 3 3 3 3 3 3 3 3 3 3 3 2 3 3 3 3 2
26 26 25 25 26 26 27 26 27 29 31 31 30 31 34 36 36 33 29 29 29 27 27 28 27 26 25 24 23 22 21 20 19 18 17 16 15 14 13 13 12 12 11 11 11 10 10 9 9 9 8 8 7 7 6 6 6 6 6 6 6 6 5 6 6 5 5 5 5 5 5 5 5 4 4 4 4 4 4 3 3 3 3 3 4 3 3 3 3 3 3 3 3 2 3 3 2
32 33 33 33 34 34 35 34 34 34 34 34 32 31 31 29 28 27 26 25 24 22 20 18 17 16 14 13 12 12 11 10 10 9 9 9 8 8 8 8 8 8 8 8 7 7 6 6 6 6 6 6 6 6 6 6 6 7 7 7 7 7 7 7 7 7 7 7 6 6 6 6 6 6 5 5 5 5 5 4 4 4 4 4 4 4 4 3 3 3 3 3 3 3 3 3 3
37 37 36 34 33 31 29 27 25 23 22 20 19 18 16 15 15 14 13 12 11 10 10 9 8 8 8 7 7 7 7 7 7 7 8 8 7 8 8 9 9 9 9 8 8 7 7 7 6 6 6 7 7 7 7 8 8 8 8 8 8 8 9 8 8 8 8 8 8 8 8 7 7 7 7 7 6 6 6 5 5 5 5 5 5 5 4 4 4 3 3 3 3 3 3 3 3
28 25 23 21 19 17 16 14 13 13 13 12 11 10 9 10 11 10 8 8 8 8 8 7 8 8 8 8 7 8 8 8 8 9 9 9 9 9 9 10 10 9 9 8 8 8 7 7 7 7 7 7 7 8 8 8 8 8 8 8 8 8 8 8 8 9 8 8 8 8 9 9 9 8 8 8 7 7 7 7 7 6 6 6 5 5 5 4 4 3 3 3 3 3 3 3 3
16 14 14 13 12 11 11 12 12 13 15 15 13 12 11 12 13 13 12 11 11 11 10 10 11 11 10 10 10 10 10 10 10 10 10 10 10 10 10 10 10 10 9 9 9 9 8 8 8 7 7 7 7 7 7 8 8 8 8 8 8 8 8 8 8 9 9 8 8 8 9 9 9 9 8 9 8 8 8 7 7 7 7 6 6 6 5 4 4 4 4 3 3 3 3 4 3
14 13 13 14 15 15 16 17 17 19 21 22 20 17 16 16 16 15 15 16 16 14 12 11 11 11 11 11 10 10 10 10 10 10 10 10 10 10 10 10 10 9 9 9 9 9 9 9 9 8 8 8 8 8 7 7 7 7 8 8 8 8 8 8 8 8 8 8 8 8 8 8 8 8 8 8 8 7 8 8 7 7 7 7 7 6 5 5 4 4 4 3 3 3 3 4 3
18 17 17 17 18 19 19 20 20 21 24 25 26 23 20 20 18 17 18 20 20 17 14 12 10 10 10 11 11 11 11 10 10 9 9 9 9 9 9 8 8 8 8 8 8 8 8 8 9 9 9 8 8 8 7 7 7 7 7 7 7 7 7 8 7 8 7 7 7 7 8 8 8 8 8 7 7 7 7 7 7 7 8 8 8 7 6 5 5 4 4 4 4 4 4 4 4
23 22 21 19 18 18 19 20 20 21 24 28 29 24 22 22 20 19 22 23 24 21 17 14 12 10 10 10 10 11 11 10 10 9 9 9 9 9 9 8 8 7 7 7 6 7 7 8 8 8 8 8 8 8 8 8 8 7 7 7 7 6 6 6 6 6 6 6 6 7 7 8 8 9 8 8 8 7 7 6 6 6 7 8 8 8 8 6 5 5 4 4 4 4 4 4 4
25 24 23 22 20 19 18 18 18 19 22 28 30 25 23 24 22 23 26 26 25 22 19 17 15 13 11 10 10 10 10 9 9 9 9 9 9 10 9 9 8 8 7 6 6 6 6 7 8 8 8 8 8 9 8 8 8 8 8 7 7 6 6 6 6 5 5 5 6 7 8 7 7 8 8 9 9 8 8 7 6 6 6 7 8 8 9 8 6 5 5 5 5 5 5 4 4
24 24 24 23 22 21 20 19 18 18 19 24 30 29 27 25 23 24 26 26 24 22 21 20 17 15 13 12 11 10 9 9 8 8 8 9 9 10 10 9 9 9 8 7 6 6 6 7 8 8 8 8 8 9 9 9 9 8 9 8 8 7 6 6 6 5 5 5 6 7 8 8 8 8 8 9 9 10 9 8 7 6 6 6 6 8 9 9 8 7 6 6 6 6 6 5 5
24 24 23 23 23 22 21 20 20 19 17 19 24 27 28 27 23 24 25 24 24 24 24 23 21 19 17 15 14 12 10 9 9 9 8 8 9 10 10 10 9 9 8 8 7 6 7 7 8 8 8 8 8 8 9 9 10 9 10 10 9 8 7 6 5 6 6 6 7 8 8 9 9 9 8 8 9 10 10 10 9 8 7 6 5 6 8 9 10 9 8 7 7 7 6 6 6
21 21 21 21 22 21 21 20 20 19 17 17 20 21 23 24 23 23 24 23 24 24 24 23 22 20 19 17 16 14 13 12 11 11 10 10 10 10 10 10 10 9 8 8 7 7 7 7 7 7 8 8 7 7 8 8 9 9 10 11 11 10 8 6 5 6 6 6 8 9 9 9 10 10 9 8 8 9 10 11 11 10 9 7 6 5 6 8 10 11 10 8 7 7 7 7 6
21 22 22 21 20 21 20 19 18 17 15 15 18 18 18 19 19 19 21 22 23 23 23 23 21 20 18 17 16 16 15 15 14 13 12 12 11 10 11 11 10 10 9 8 7 7 7 6 6 6 7 8 7 6 6 6 7 8 9 10 11 11 10 8 6 5 6 7 7 8 9 9 10 10 10 9 9 9 10 11 11 12 12 10 7 5 5 7 9 10 10 9 8 7 8 8 8
26 26 25 23 21 20 19 19 18 16 15 14 15 16 16 16 16 15 16 16 17 18 19 19 19 18 17 16 16 16 15 15 14 14 13 12 12 11 11 10 10 10 9 8 8 7 6 6 6 6 6 6 6 6 5 5 5 6 7 9 11 12 12 10 7 6 6 6 6 7 8 9 10 10 10 10 9 9 10 11 11 12 12 12 9 7 5 5 7 9 9 9 8 8 8 9 8
29 28 28 26 24 23 22 23 23 21 20 18 15 15 16 15 13 12 11 11 11 11 12 12 13 13 13 13 13 12 12 12 12 11 11 11 10 10 9 9 9 9 8 8 8 7 6 6 5 5 5 5 5 5 5 4 4 4 6 8 9 11 11 10 8 7 6 6 6 6 7 7 8 8 9 9 8 8 9 10 11 11 11 11 10 9 7 5 6 7 8 9 8 8 9 9 8
30 29 28 26 25 26 25 27 30 29 26 23 17 14 14 13 11 10 9 9 9 8 8 8 8 8 8 8 8 8 7 7 7 7 7 7 7 7 7 7 7 7 7 7 7 7 6 6 5 4 4 4 4 5 4 4 4 4 4 5 6 8 8 8 8 7 6 5 5 5 5 5 6 6 7 7 7 7 8 8 10 10 10 10 9 9 8 6 6 6 6 7 7 8 9 8 8
35 31 30 30 30 30 28 26 27 25 22 19 15 12 11 11 10 9 9 8 8 7 6 6 5 5 5 5 5 5 4 5 4 5 5 4 5 5 5 5 6 6 6 5 5 5 5 4 4 4 3 3 3 3 3 3 3 3 3 3 3 4 5 5 5 5 4 4 4 4 4 4 4 4 5 5 6 6 6 7 8 8 8 8 8 8 8 7 6 6 5 6 7 7 8 8 8
Wind_Speed
43 44 45 46 48 49 50 51 52 55 55 58 58 57 60 61 63 64 64 65 66 68 68 69 69 70 70 71 72 72 73 73 72 72 72 74 74 74 74 75 75 75 76 76 76 76 76 76 76 76 76 76 76 76 76 75 75 74 73 72 71 69 67 65 64 63 62 61 60 58 56 54 53 51 50 50 49 49 49 50 50 51 51 52 52 52 53 54 54 55 55 56 56 57 58 58 59
43 44 45 46 48 49 51 51 53 55 55 57 57 57 58 59 61 62 63 64 65 67 68 69 69 71 71 72 73 73 74 73 73 74 74 75 75 75 75 75 75 76 76 76 76 76 76 76 76 75 75 76 76 76 75 75 74 72 70 68 66 64 63 62 61 60 59 56 54 52 51 50 49 49 48 48 48 49 49 49 50 50 51 51 52 52 53 53 54 55 55 56 57 58 59 60 61
43 44 45 46 48 49 51 52 54 56 56 58 58 57 59 59 60 62 63 64 65 66 67 67 68 70 70 72 72 72 73 73 73 73 74 75 74 75 75 75 75 75 76 76 75 75 75 75 75 75 75 75 74 73 73 71 70 67 64 62 61 60 60 59 58 56 54 52 51 50 50 49 49 48 48 48 48 48 48 49 49 49 50 50 51 51 52 52 53 53 54 55 56 57 58 59 60
43 44 45 46 48 49 50 52 53 55 57 58 59 58 59 60 61 62 63 64 65 66 66 67 68 69 70 71 72 72 72 72 73 73 74 75 74 74 74 74 75 75 75 75 75 74 74 74 74 73 72 72 70 69 67 65 63 61 60 59 59 58 56 55 53 52 51 51 50 50 50 49 49 49 48 48 48 48 48 48 48 49 49 50 50 51 51 52 52 53 53 54 54 55 56 57 59
44 45 46 46 48 49 50 52 53 54 56 56 59 58 58 60 61 62 63 64 65 65 66 66 67 69 70 71 71 71 72 72 73 73 74 74 74 74 74 73 73 73 73 72 72 71 71 70 70 69 68 67 65 63 62 60 60 59 59 58 57 55 53 52 52 51 51 51 50 50 50 49 49 49 48 48 48 48 48 48 49 49 50 50 51 51 52 52 53 53 54 54 55 55 56 57 58
45 46 46 47 48 50 50 52 53 54 55 55 58 59 58 59 61 63 64 65 65 65 65 66 67 68 69 70 69 70 70 70 71 71 71 72 71 71 70 69 68 68 67 67 67 67 66 66 65 65 63 62 61 60 59 59 59 58 57 56 54 53 52 52 51 51 51 50 50 49 49 49 49 49 49 49 49 49 49 49 50 50 50 51 52 52 53 53 54 54 55 55 56 57 57 58 59
46 47 47 48 49 50 51 53 53 55 55 54 57 59 58 59 60 62 63 64 64 64 65 65 66 66 67 68 67 67 67 66 66 66 66 66 66 65 65 64 63 63 63 64 64 64 63 63 62 62 61 60 60 60 59 59 58 57 55 54 52 51 51 51 51 50 50 50 49 49 49 50 50 50 50 50 50 50 50 50 51 51 52 52 53 54 54 55 55 56 57 57 58 59 59 60 61
49 50 51 51 52 53 54 55 56 57 57 56 58 59 59 60 62 62 63 63 64 64 64 64 64 64 65 65 64 64 63 62 62 62 62 62 62 62 62 61 61 62 62 62 62 62 62 62 61 61 61 60 60 60 59 58 57 55 53 52 51 51 51 51 51 50 50 49 50 50 50 50 51 51 51 51 51 51 51 52 52 53 54 54 55 56 57 57 58 59 59 60 61 61 62 63 63
52 53 54 55 56 57 57 59 59 60 60 60 60 62 62 64 65 65 65 65 65 65 65 65 64 64 64 63 62 62 61 61 60 60 60 61 61 61 61 61 60 61 61 61 61 61 61 61 61 61 61 60 60 59 58 57 55 54 52 51 51 51 51 51 51 50 50 50 51 51 52 52 52 52 52 52 52 53 53 54 54 55 56 56 57 58 58 59 60 60 61 62 63 63 64 65 66
55 56 57 58 59 60 60 61 62 62 63 63 63 64 66 67 67 67 67 67 66 66 65 65 64 63 63 62 61 60 60 60 59 59 59 60 60 60 60 60 60 60 61 61 61 61 61 61 61 61 60 59 59 58 57 55 54 53 52 52 52 52 52 52 52 52 52 52 53 53 53 54 54 54 54 54 54 55 55 56 56 57 57 58 58 59 59 60 61 62 62 63 64 65 66 67 68
58 59 59 60 61 62 63 64 64 65 65 65 65 66 68 68 68 68 68 67 66 66 65 64 63 62 61 61 59 59 58 59 59 58 59 59 60 60 60 60 60 60 60 61 61 61 61 61 60 60 59 58 57 56 55 54 53 52 52 53 53 53 53 53 53 54 54 54 55 55 55 56 56 56 56 56 57 57 57 58 58 59 59 59 60 60 61 61 62 63 64 65 65 66 67 68 69
61 62 63 63 64 65 66 67 67 67 68 67 67 69 70 69 69 68 68 67 66 65 64 63 62 60 59 59 58 58 58 58 58 58 58 59 59 60 60 60 60 60 60 60 60 60 60 60 59 58 57 57 56 55 54 54 53 53 54 54 54 54 55 55 55 56 56 56 56 57 57 57 58 58 58 59 59 60 60 60 60 61 61 61 62 62 62 63 63 64 65 66 67 68 69 70 71
64 65 66 67 67 68 69 70 69 69 70 68 68 70 70 69 69 68 67 66 64 62 62 60 59 58 58 59 58 57 57 57 58 57 58 58 59 59 60 60 60 60 59 59 59 59 59 59 58 57 57 56 55 55 54 55 55 55 55 56 56 56 56 57 57 57 58 58 58 59 59 60 60 60 61 61 61 62 62 63 63 63 64 64 64 64 64 65 65 66 67 68 69 70 71 72 72
67 68 69 70 70 70 71 72 71 71 71 69 69 70 69 68 67 65 64 63 62 59 58 57 57 56 57 58 57 57 56 56 57 57 57 58 59 59 59 59 59 59 59 58 58 58 58 58 58 57 56 56 56 55 56 56 57 57 57 58 58 58 58 58 59 59 60 60 60 61 61 62 62 63 63 63 64 64 65 65 66 66 66 66 66 67 67 67 67 68 68 69 70 71 72 73 74
70 71 71 72 71 71 72 73 72 72 71 69 69 69 67 65 63 62 60 59 58 56 55 55 54 55 57 58 57 57 56 56 56 56 57 57 58 58 58 58 58 58 58 58 58 58 58 58 58 57 57 57 57 57 57 58 59 59 60 60 60 60 60 60 60 61 61 62 62 63 63 64 64 65 65 66 66 66 67 67 68 68 69 69 69 69 69 69 69 70 70 70 71 73 74 75 76
71 71 71 72 71 70 71 71 71 71 70 67 66 65 63 61 58 57 56 55 54 53 53 52 52 54 57 58 56 56 56 55 56 56 56 56 56 57 57 58 58 58 58 58 58 58 59 59 58 59 59 59 59 59 59 60 61 61 62 62 61 61 61 61 62 62 63 63 64 65 65 66 66 66 67 68 68 68 69 69 70 70 70 71 71 71 71 72 72 72 72 72 73 74 75 76 77
69 68 67 67 66 65 66 66 67 66 64 61 60 58 56 55 52 51 52 52 51 52 52 50 51 55 57 56 54 54 55 55 55 55 54 54 55 56 57 57 58 58 58 59 59 60 60 60 60 61 61 61 61 61 62 62 63 63 64 64 63 63 63 63 64 64 65 65 66 67 67 68 68 68 69 69 70 70 71 71 72 72 72 73 73 73 73 74 74 74 74 74 75 75 76 77 78
63 61 59 59 58 57 58 57 58 57 55 53 51 50 49 49 47 48 50 50 50 51 50 49 51 55 54 52 51 51 54 55 55 54 53 54 54 55 56 57 58 59 59 60 61 62 62 62 63 63 63 63 62 63 64 64 65 66 66 66 66 65 65 65 66 66 67 67 68 68 69 70 70 71 71 72 72 72 73 73 74 74 74 74 75 75 75 76 76 77 77 77 78 78 78 79 79
54 53 52 52 51 50 49 47 47 47 46 45 44 43 44 44 44 47 48 48 49 49 49 48 50 53 51 49 50 50 52 53 54 54 54 54 55 55 56 57 59 60 61 62 63 64 65 65 65 66 65 65 64 65 66 66 67 68 68 68 68 68 68 68 68 69 69 69 70 71 71 72 72 73 73 74 74 75 75 76 76 76 76 77 77 77 78 78 79 79 80 80 81 81 81 81 81
48 46 46 45 43 42 39 37 37 37 38 38 38 40 42 43 43 46 47 48 48 46 47 47 48 50 49 47 48 50 51 52 54 55 56 56 56 56 57 58 60 61 63 64 65 67 68 68 68 68 68 67 67 67 68 68 70 71 71 70 70 70 70 71 71 71 71 72 72 73 73 73 74 75 76 76 77 77 78 78 79 79 79 80 80 80 81 81 81 82 82 83 83 84 84 84 84
41 39 38 36 35 34 31 30 31 31 33 35 37 39 41 42 43 45 45 46 46 45 45 45 46 48 48 47 48 50 52 53 54 55 57 57 58 58 59 60 62 63 64 66 67 69 70 70 70 71 71 70 70 70 70 71 72 72 73 73 73 73 73 73 74 74 74 74 74 74 75 75 76 77 78 79 80 80 81 81 82 82 83 83 84 84 84 84 84 84 85 85 86 86 87 87 87
33 31 30 29 28 27 25 26 27 29 32 35 37 40 41 42 43 43 43 43 44 44 44 44 44 46 47 48 48 50 52 55 56 57 58 59 60 61 62 63 64 65 66 67 69 71 71 72 73 73 74 74 73 73 73 74 74 74 74 75 75 75 75 76 76 76 76 77 76 77 77 78 79 80 81 82 83 83 84 85 85 86 86 87 87 87 87 87 87 87 87 88 88 88 89 89 89
26 25 24 23 23 22 22 24 26 29 32 34 38 40 40 41 42 41 40 40 42 44 44 44 44 45 47 49 50 51 53 56 58 59 60 61 62 64 65 66 67 67 67 69 71 72 73 74 75 76 76 77 76 77 77 77 76 76 76 76 77 77 78 78 78 78 79 79 79 79 80 80 81 82 84 85 86 87 88 89 89 90 90 90 91 90 90 90 90 90 90 90 90 90 91 91 91
20 20 20 19 20 21 22 24 27 29 31 34 37 39 39 39 40 40 38 38 40 43 44 45 45 47 49 50 52 53 54 57 59 62 63 64 65 67 68 69 69 69 70 72 72 73 75 77 77 78 79 79 80 80 80 80 79 78 78 78 79 80 80 80 80 81 82 82 82 82 83 84 85 86 87 89 90 91 92 92 93 93 93 93 93 93 93 93 93 93 92 92 92 92 92 92 93
16 17 17 18 19 21 23 25 27 29 30 32 36 38 38 37 38 40 38 38 40 42 45 47 48 49 51 53 54 56 57 59 62 64 66 67 68 70 71 72 72 72 73 74 74 75 77 78 79 81 81 81 83 84 84 83 82 81 81 81 82 83 83 83 84 85 85 85 85 86 87 88 89 90 91 92 93 94 94 95 95 95 96 96 96 96 96 96 95 95 94 94 94 94 94 94 94
13 14 16 17 18 20 22 23 26 28 29 31 36 39 38 37 37 40 40 39 41 44 47 50 50 52 54 56 58 59 61 62 64 66 68 70 71 73 74 74 74 75 77 77 77 78 79 80 82 82 82 84 85 86 87 86 85 85 85 86 86 86 86 87 88 89 89 90 90 90 91 93 93 94 95 95 96 97 97 97 98 98 98 99 99 98 98 98 97 97 96 96 95 95 95 95 95
13 15 17 17 18 21 23 24 26 29 30 32 37 41 40 38 38 40 42 43 43 46 51 53 53 55 57 59 61 62 63 65 67 68 70 72 74 75 77 77 77 79 80 81 81 81 81 83 84 84 85 87 88 89 89 89 89 89 90 90 90 90 90 91 92 93 94 94 94 94 95 96 97 97 98 99 99 100 100 100 101 101 101 101 101 100 100 99 99 98 97 97 96 96 96 96 96
16 17 20 21 20 23 26 27 29 31 33 34 38 44 44 42 41 41 44 47 48 50 53 55 56 58 60 62 64 66 67 68 69 70 73 75 76 78 79 80 81 82 83 84 85 86 86 86 87 87 88 90 91 92 92 92 92 92 93 93 93 94 95 95 96 97 98 98 98 99 99 100 101 101 102 102 102 102 102 102 102 102 102 102 102 101 101 100 100 99 98 98 97 97 97 97 97
20 22 24 26 24 26 30 32 34 35 37 38 39 46 50 48 46 45 46 49 52 54 55 57 60 62 64 66 68 70 71 71 72 74 76 78 79 81 82 83 84 86 87 88 89 90 90 90 90 90 91 93 94 94 94 94 95 96 96 97 97 98 98 99 100 101 101 102 103 103 104 104 104 104 105 105 104 104 104 103 103 103 102 102 102 102 101 101 100 100 99 99 99 99 99 99 98
24 26 28 30 29 29 31 35 38 39 41 41 40 45 51 53 53 51 50 52 55 58 59 60 63 66 68 70 71 73 74 75 76 78 79 81 83 84 85 87 88 88 90 91 92 92 92 93 93 93 95 97 97 97 98 98 99 100 100 101 101 102 103 103 104 105 105 105 106 106 106 106 106 106 106 106 105 105 105 104 103 103 102 102 102 102 102 101 101 101 100 100 100 100 100 100 100
28 29 31 34 35 35 34 36 41 43 45 45 44 47 50 54 58 58 57 57 59 62 64 65 67 69 72 74 75 77 78 80 81 82 83 85 86 87 89 90 90 90 91 93 94 95 95 96 96 97 99 100 101 101 102 103 104 104 105 105 106 106 106 107 107 107 107 107 107 107 107 107 107 107 106 106 106 105 105 104 104 103 103 103 103 103 102 102 101 101 101 101 101 101 101 100 101
32 33 35 37 40 42 41 41 44 48 50 50 50 52 53 55 59 63 64 65 66 67 69 70 72 73 75 77 79 80 82 83 85 86 87 88 89 90 91 92 93 93 94 95 97 98 98 99 100 101 103 104 104 105 106 107 107 108 109 109 109 108 108 108 108 107 107 108 108 108 108 107 107 107 106 106 106 106 105 105 105 104 104 104 104 104 103 103 102 102 102 102 102 102 102 102 102
36 37 40 42 43 46 48 48 49 51 54 56 56 57 57 59 61 64 66 68 70 72 74 76 77 78 79 81 82 84 86 87 88 89 90 92 93 94 95 96 97 97 98 99 100 101 102 103 104 105 106 107 108 109 109 109 110 110 110 109 109 108 108 108 108 108 108 108 108 108 108 107 107 107 107 106 106 106 106 106 106 106 106 106 106 105 105 104 104 104 104 103 103 103 103 102 102
40 42 43 46 48 49 51 54 55 57 58 59 61 62 62 63 65 67 69 71 73 75 78 80 82 84 85 86 87 88 89 91 92 93 94 95 97 98 99 100 101 102 102 103 104 105 106 107 107 108 109 109 110 110 110 110 110 110 109 109 109 108 108 108 108 108 108 108 108 108 108 108 108 108 108 107 107 107 107 108 107 107 107 108 107 107 107 106 105 105 105 104 104 103 103 102 102
45 47 48 51 53 54 55 57 59 61 64 65 66 67 67 67 69 71 73 76 77 79 81 83 85 87 89 90 91 92 93 94 96 97 98 99 100 102 103 104 105 106 107 108 109 109 110 110 110 110 110 111 111 111 111 111 111 110 110 109 109 109 109 109 109 109 109 109 109 109 109 109 109 109 109 108 108 108 108 108 108 108 108 108 108 107 107 106 106 105 105 104 104 103 102 102 101
49 51 53 54 57 61 62 61 62 63 66 70 71 73 73 72 74 76 78 80 82 83 85 87 88 90 91 93 94 95 96 97 99 100 102 103 104 105 106 107 108 109 109 110 110 111 111 112 112 112 112 112 112 112 112 111 111 111 110 110 110 111 111 110 110 110 111 110 110 110 110 110 110 110 110 109 109 109 108 108 108 108 107 107 106 106 106 106 105 105 104 104 103 102 101 101 101
53 55 57 58 59 64 67 67 67 67 68 71 74 77 79 78 79 81 82 84 86 88 90 91 93 94 95 96 98 98 99 101 102 103 104 105 106 107 108 108 109 110 111 111 112 113 113 114 114 114 114 114 114 114 113 113 112 112 112 112 113 113 113 113 113 113 113 113 112 112 112 111 111 111 110 110 109 108 108 107 107 107 106 105 105 105 105 105 105 104 104 103 102 101 100 99 100
59 60 61 63 64 66 70 72 73 72 72 73 76 79 83 85 86 87 87 88 90 91 93 95 96 98 99 100 100 101 102 103 104 105 106 106 107 108 108 109 110 110 111 112 113 114 115 115 116 116 117 117 117 116 115 115 115 115 115 115 115 115 115 115 115 115 115 114 114 113 112 112 111 110 110 109 109 108 107 106 106 105 105 104 104 104 104 104 104 103 103 102 100 99 98 98 98
64 65 66 68 69 70 73 77 79 78 77 77 78 81 85 89 91 92 92 92 93 94 95 96 97 99 100 101 102 102 103 103 104 105 106 107 107 108 108 109 110 111 112 114 115 116 117 117 118 118 119 119 118 117 117 117 117 117 118 118 118 118 117 117 116 116 115 114 113 112 112 111 110 109 109 108 108 107 106 106 105 104 104 103 103 103 103 103 103 102 101 100 98 97 97 96 96
67 69 70 71 73 73 74 76 80 82 82 81 81 82 85 90 95 97 97 96 95 95 96 97 97 98 99 100 101 102 103 103 104 105 106 107 108 109 109 110 111 113 114 115 117 118 118 119 120 120 120 120 120 119 119 119 118 118 118 118 118 117 116 116 115 114 113 112 111 111 110 110 109 108 107 107 107 106 106 105 105 103 102 102 101 101 102 102 101 100 99 97 96 96 96 95 94
71 72 73 74 76 77 77 77 79 82 84 85 85 84 85 90 96 100 100 99 98 97 97 98 98 99 100 101 103 104 104 104 105 106 107 109 110 110 111 112 113 114 115 116 117 118 118 119 119 119 119 119 119 118 118 117 116 116 116 115 115 114 114 113 113 113 112 111 111 110 110 110 109 108 107 107 106 106 105 105 104 103 102 100 100 100 99 100 99 98 96 94 94 95 94 93 93
74 76 77 78 79 80 81 81 81 82 84 87 88 87 87 90 97 101 101 101 101 99 99 100 101 101 103 104 105 105 104 104 105 106 107 109 109 109 110 111 112 113 114 114 114 115 115 115 115 115 115 115 115 114 113 113 112 112 113 113 113 112 112 113 113 113 112 111 111 111 110 110 109 108 107 106 105 105 105 104 104 102 101 100 99 98 98 98 97 96 94 93 94 93 92 92 92
75 77 79 80 81 82 84 85 85 85 86 89 91 91 89 89 96 100 99 100 101 100 100 100 101 101 103 105 105 104 103 103 103 105 106 107 108 108 108 109 110 111 112 112 112 112 112 112 112 112 112 111 111 110 110 109 109 109 110 110 110 110 111 111 112 111 111 110 110 110 109 109 108 107 106 105 105 104 104 104 103 102 100 99 99 99 98 98 97 96 95 94 93 92 92 91 91
77 79 80 81 83 84 84 85 86 86 87 89 90 92 91 90 95 99 96 95 96 96 97 98 99 101 102 103 103 102 102 102 102 104 105 106 107 107 107 107 108 109 110 111 111 111 111 111 110 110 109 108 107 106 106 105 105 105 105 105 105 105 106 106 106 107 107 107 106 106 106 105 105 105 104 103 103 103 103 103 103 101 100 100 100 99 99 98 98 96 95 94 93 93 92 91 91
80 81 81 82 82 83 84 84 84 85 86 89 90 91 91 91 96 98 95 94 94 94 95 96 99 101 102 102 102 102 102 102 102 103 104 105 106 105 105 106 106 107 108 109 109 109 109 109 108 107 105 103 102 101 100 99 99 99 98 98 98 98 98 98 99 99 100 101 100 99 100 100 100 101 100 100 100 100 101 101 102 101 100 100 100 99 99 98 97 96 95 94 93 92 92 91 91
80 80 81 82 82 82 83 83 84 84 87 89 91 91 92 93 95 96 95 94 94 94 94 94 97 99 100 100 100 100 99 100 100 100 101 102 102 102 102 102 103 104 105 104 104 104 104 103 102 101 99 97 96 94 93 92 92 92 92 92 91 92 92 91 92 93 94 95 94 94 94 94 95 96 96 96 96 97 97 98 99 99 98 98 98 98 98 97 95 94 93 92 91 91 91 90 89
80 80 80 81 82 83 83 84 84 84 86 88 90 92 93 94 94 95 94 93 93 94 94 93 93 94 96 96 96 96 96 96 96 95 96 97 97 97 97 97 98 98 98 98 97 97 96 95 94 94 93 92 92 90 89 87 87 87 87 87 87 88 88 88 88 89 89 90 90 90 89 90 91 92 92 93 93 92 92 92 93 93 93 94 95 95 95 95 94 92 91 90 89 89 88 88 87
81 82 82 81 81 81 81 82 83 82 83 85 87 89 92 94 94 93 94 94 94 95 96 95 93 92 94 95 96 96 96 95 94 93 92 93 94 93 93 93 92 92 92 91 90 90 89 89 89 90 90 89 89 88 87 86 85 86 86 86 86 86 86 86 86 86 86 86 85 85 85 85 87 88 89 89 89 88 88 88 88 88 88 89 91 92 93 93 92 90 89 88 87 86 86 85 84
83 83 84 84 83 81 79 79 80 79 79 81 84 87 89 93 94 91 91 93 94 95 97 97 97 96 96 97 97 97 97 96 95 94 93 93 94 94 93 93 92 91 89 87 86 85 85 86 87 88 88 88 87 87 86 86 86 87 87 87 86 85 85 84 84 84 84 83 82 83 83 83 83 84 86 86 87 86 86 86 86 85 85 85 86 88 89 90 90 88 86 85 84 83 83 82 82
80 82 83 85 86 84 81 79 79 77 75 75 79 82 85 90 91 90 90 91 93 95 96 97 99 100 101 101 101 100 99 98 97 96 95 95 95 96 96 96 95 94 92 89 86 85 85 86 87 88 88 88 87 88 88 88 88 88 89 88 87 86 85 84 84 84 83 81 80 82 83 83 82 82 83 84 84 85 85 85 85 85 85 84 83 83 85 88 89 87 84 82 81 80 80 80 79
77 80 82 83 85 86 84 82 82 81 75 70 72 76 80 85 87 88 89 90 93 95 95 97 98 100 102 104 104 103 102 101 100 99 98 97 97 98 99 99 98 97 96 94 90 88 87 88 89 90 89 89 89 89 90 90 90 90 90 91 90 88 86 85 84 84 83 82 81 82 84 84 83 82 82 82 82 83 84 85 84 85 85 84 83 81 81 84 87 86 83 80 78 78 78 77 77
74 77 79 79 81 83 83 83 83 85 82 74 72 74 77 81 83 84 87 89 91 93 95 97 99 100 102 104 106 106 105 105 104 104 103 102 101 101 102 102 100 100 99 97 94 92 91 91 91 91 91 90 90 90 91 92 92 92 93 93 93 92 89 85 84 85 85 83 83 84 85 85 85 84 83 82 81 82 84 85 85 85 85 85 83 81 79 80 83 84 83 80 77 76 76 76 76
72 73 74 75 76 78 81 81 82 85 86 81 77 78 79 80 81 82 85 87 88 90 93 96 98 100 102 104 106 107 108 108 108 108 108 107 106 106 106 106 104 103 102 100 97 95 94 93 92 92 92 93 92 91 91 91 91 92 93 94 95 95 93 89 85 86 86 85 85 86 86 86 86 86 85 83 82 82 83 84 85 85 86 86 84 81 78 77 78 81 83 82 78 75 74 74 74
70 71 72 72 72 74 78 82 84 86 87 84 81 81 81 82 83 83 84 85 85 87 90 93 96 99 101 103 105 107 108 109 110 110 110 110 110 109 109 109 108 107 106 104 101 99 97 95 93 92 92 93 93 91 90 89 89 89 90 92 94 96 97 93 88 87 87 87 86 87 87 87 87 86 86 85 83 82 83 84 84 85 86 87 86 83 79 76 75 77 81 82 79 75 73 72 72
69 70 71 73 74 74 76 80 85 89 90 88 87 85 84 85 87 88 88 88 87 87 88 91 94 96 98 99 101 104 106 107 108 109 110 110 111 110 110 109 109 108 107 106 104 102 99 97 95 93 92 92 92 92 90 88 86 85 85 88 92 95 96 96 92 90 89 88 87 86 86 87 86 86 86 86 84 83 83 84 84 85 85 86 87 85 81 77 75 75 79 81 80 76 72 70 70
67 69 71 73 75 77 77 77 83 89 92 93 94 92 89 90 93 95 95 94 93 92 91 91 92 93 94 95 96 97 99 101 102 102 103 104 105 105 105 104 104 104 104 103 103 102 101 99 97 95 93 92 91 91 90 88 84 82 81 82 86 90 93 94 93 91 91 90 88 87 86 85 85 85 86 86 85 83 83 83 84 85 86 86 86 86 83 79 76 75 78 79 79 76 72 69 68
69 69 70 72 74 77 78 76 79 85 89 94 98 97 94 94 97 98 98 98 99 99 97 95 94 94 92 91 91 91 91 91 92 93 93 93 94 94 95 96 96 96 96 96 96 97 97 96 95 93 91 89 87 87 87 86 84 82 80 79 80 84 87 89 90 90 90 90 89 88 86 84 83 84 84 84 84 83 83 83 84 85 86 86 85 85 84 81 78 76 76 77 77 75 72 69 67
72 71 71 73 76 79 81 80 79 81 85 91 98 99 96 96 98 99 99 99 100 100 100 98 96 94 93 91 90 89 88 87 87 87 87 87 86 86 86 87 88 89 90 90 89 89 90 90 90 89 88 86 84 83 83 82 80 79 79 78 77 78 80 82 85 86 87 88 88 87 86 84 83 82 83 83 83 83 82 83 83 84 85 85 85 84 83 82 81 78 75 74 74 74 72 69 66
Wind_Direction
261 261 261 261 260 260 260 260 261 261 261 261 261 261 261 261 262 263 263 263 263 264 264 264 265 265 265 266 266 267 268 268 269 269 269 270 271 272 272 272 273 273 273 273 274 274 274 274 275 275 275 275 276 276 276 276 277 277 277 278 277 277 277 276 276 275 274 273 272 271 269 267 266 264 263 263 262 262 262 262 262 262 261 261 262 261 261 261 261 262 262 262 263 263 263 263 263
263 263 263 263 263 263 264 264 264 264 264 264 265 265 265 265 265 265 265 265 265 265 266 266 266 267 267 267 267 268 268 269 270 270 270 271 271 272 272 273 273 274 274 274 274 275 275 275 275 275 275 275 276 276 276 277 277 277 277 277 276 276 275 275 274 273 272 270 268 267 266 265 264 263 263 262 262 261 261 260 260 260 260 260 260 260 260 260 260 260 260 260 260 260 260 261 261
262 263 263 264 264 264 265 265 265 265 266 266 267 267 267 267 267 268 268 268 268 268 268 268 268 268 269 269 269 269 270 270 271 271 272 272 272 273 274 274 274 275 275 275 275 276 275 275 276 276 276 276 276 276 277 277 277 276 276 275 275 274 274 273 272 270 268 266 264 263 263 262 262 262 261 261 261 261 261 261 261 261 261 261 261 261 261 261 261 261 261 261 260 260 260 260 260
260 261 261 262 263 263 263 264 264 265 265 266 267 267 268 268 269 269 270 270 270 269 269 270 270 270 270 270 271 271 272 272 273 273 273 274 274 274 275 275 276 276 276 276 276 276 276 276 276 276 276 276 276 276 276 275 275 275 275 275 274 273 271 269 267 265 264 262 262 261 261 260 260 261 261 261 261 262 262 262 262 263 263 263 263 262 263 262 262 262 262 262 262 262 262 262 262
260 260 261 261 262 262 263 263 264 264 265 266 267 267 268 269 269 270 270 270 270 270 270 270 270 271 271 272 272 273 273 274 274 274 274 275 275 275 276 276 276 276 276 276 276 276 276 275 275 275 275 275 275 274 274 274 274 275 275 274 272 270 267 265 263 261 260 260 259 259 260 260 260 260 261 261 262 262 263 263 264 264 264 265 265 265 265 265 265 265 265 265 265 265 265 265 264
262 262 263 263 263 264 264 264 265 265 265 266 267 268 268 268 269 269 269 269 269 269 270 270 270 271 272 272 273 273 274 274 274 274 274 275 275 275 275 275 275 275 275 275 274 274 274 274 274 274 274 274 273 274 274 274 275 274 273 272 269 266 264 262 261 260 259 259 259 260 260 261 261 262 262 262 263 264 265 265 265 266 266 267 267 267 267 267 267 267 267 267 268 268 267 267 267
264 264 264 264 264 264 265 265 265 266 266 266 267 268 268 269 268 268 269 269 270 270 270 270 270 271 271 272 272 273 273 273 274 274 274 274 274 274 274 274 274 274 273 273 273 273 273 273 273 273 273 273 274 274 275 275 274 273 271 268 265 263 262 262 261 260 260 261 262 262 263 264 264 265 265 266 266 267 267 268 268 269 269 270 270 271 271 271 271 271 271 270 270 270 270 270 269
264 265 265 265 265 265 265 266 266 267 267 267 268 269 269 269 269 269 270 270 271 271 271 271 271 271 272 272 272 273 273 273 273 273 273 273 273 274 274 274 273 273 273 273 273 272 273 273 273 273 274 274 274 274 274 273 272 270 267 264 262 262 262 261 261 261 261 263 264 265 266 266 267 267 268 268 269 270 270 270 271 271 272 272 273 273 273 273 273 273 273 273 273 273 272 272 272
266 266 267 267 267 267 267 268 268 268 268 268 268 270 270 270 270 271 271 272 272 273 273 273 273 273 273 273 273 274 273 273 273 273 273 274 274 274 274 274 274 274 273 273 273 273 273 274 274 274 274 274 274 274 273 272 269 266 264 262 262 262 262 262 262 262 263 264 265 266 267 267 268 268 269 269 270 270 271 271 271 271 271 271 272 272 272 272 272 273 273 273 273 273 273 273 273
269 269 269 269 269 270 269 269 269 269 270 269 269 270 270 270 271 271 272 272 273 273 273 273 274 274 274 274 274 274 274 274 274 274 274 274 274 274 274 274 274 274 274 274 274 274 274 274 274 274 274 274 274 273 272 270 267 264 262 262 262 262 263 263 264 264 265 265 266 267 267 268 268 269 269 270 270 270 269 269 269 269 269 269 269 269 270 270 270 270 271 271 271 271 271 271 272
272 271 271 271 271 271 271 270 270 270 270 270 271 270 270 270 270 271 271 272 272 273 273 274 274 274 274 274 274 274 274 274 274 274 274 274 274 274 274 274 273 273 274 274 274 274 274 274 275 275 274 274 273 272 270 268 265 264 264 264 264 264 264 265 265 266 266 267 267 267 268 268 269 269 269 269 269 269 268 268 267 267 267 267 267 267 267 268 268 268 268 269 269 269 270 270 270
274 273 273 273 273 272 272 272 271 271 271 271 271 270 270 270 270 270 271 271 272 272 273 273 273 274 274 274 274 274 274 274 274 274 274 273 273 273 273 273 273 273 273 273 274 274 274 274 274 274 274 273 272 270 269 267 266 266 266 266 266 266 266 266 267 267 267 267 267 268 268 269 269 269 269 269 269 268 268 267 267 266 266 266 266 266 267 267 267 267 267 267 267 267 268 268 268
275 275 274 274 273 273 273 273 272 272 271 271 270 270 270 271 270 270 270 271 271 271 272 272 273 273 273 273 273 273 272 273 273 273 273 273 273 273 273 273 273 273 273 273 273 273 274 274 274 273 273 272 271 270 269 268 268 268 268 267 267 267 267 267 268 268 268 268 268 268 268 269 269 269 269 268 268 268 267 266 266 266 266 266 266 266 267 267 267 267 267 267 266 266 266 266 267
276 276 275 274 274 274 273 272 272 271 271 271 270 270 270 270 270 271 271 271 270 270 271 271 272 273 273 273 272 271 271 271 272 272 273 273 273 273 273 273 273 273 273 273 273 273 273 273 273 273 272 272 271 270 270 270 270 269 269 269 269 269 269 268 269 269 269 269 269 269 268 268 268 268 268 267 267 267 266 266 266 266 266 266 266 267 267 267 267 268 268 268 267 267 267 266 267
277 276 276 275 275 274 273 272 272 271 271 270 269 269 269 269 270 270 270 270 270 270 270 270 271 272 271 271 271 271 271 271 272 272 272 272 273 273 273 274 274 274 274 273 273 273 273 273 273 273 273 272 271 271 271 272 272 271 271 271 271 270 270 270 270 269 270 270 269 269 269 269 269 268 268 268 267 267 267 267 266 266 266 266 267 267 268 268 268 269 269 269 269 268 268 268 267
277 277 276 275 275 274 273 272 271 271 271 270 269 268 268 268 268 269 268 268 269 269 269 270 270 270 269 269 270 272 272 272 271 271 271 271 272 273 273 274 274 274 274 274 273 273 273 273 274 274 273 273 273 273 273 273 273 273 272 272 271 271 271 271 271 270 270 270 270 270 270 270 270 269 269 269 268 268 268 268 268 268 268 268 268 268 269 270 270 270 270 270 270 270 269 269 268
277 276 275 274 273 272 271 270 271 271 270 269 267 267 267 267 266 266 266 266 267 268 268 269 269 268 268 269 271 272 272 271 271 271 271 271 271 272 272 273 273 273 274 274 274 274 274 274 274 274 274 273 274 274 274 274 274 274 274 273 273 272 272 272 272 272 271 271 271 270 270 270 270 270 270 270 270 270 271 271 271 270 270 270 270 270 271 272 272 272 272 272 272 272 271 271 270
277 276 274 273 272 270 269 269 269 269 268 266 265 264 264 264 264 264 265 266 267 268 269 269 268 267 268 271 271 271 271 271 271 271 271 270 270 270 271 272 272 273 273 274 274 274 274 274 274 274 274 274 275 275 276 276 276 276 275 275 275 274 274 274 273 273 272 272 272 271 271 271 271 271 271 271 271 272 273 273 273 273 273 273 273 273 273 274 274 275 275 274 274 273 272 272 271
277 276 274 274 273 271 270 268 266 265 264 263 262 261 261 262 262 263 265 266 267 269 270 270 269 269 271 271 271 270 270 271 272 271 270 269 269 269 270 271 272 273 273 274 274 275 275 274 274 274 274 275 275 276 277 277 278 277 277 276 276 276 275 275 274 274 273 273 273 272 272 272 273 273 273 273 273 274 274 275 275 275 275 275 275 275 275 276 276 277 277 276 276 274 273 272 272
277 275 274 273 272 270 269 265 262 261 261 261 260 260 261 261 262 263 266 267 268 269 271 271 270 271 271 271 271 270 269 269 270 271 271 270 270 269 270 270 271 272 273 274 275 275 276 276 276 276 276 276 276 276 277 278 278 278 278 277 277 277 276 276 275 274 274 274 273 273 273 274 275 275 276 276 276 276 276 277 277 277 277 278 278 277 277 278 278 278 278 278 278 277 276 274 273
276 274 272 271 268 267 264 260 259 259 261 261 262 262 262 263 264 265 266 269 270 270 269 269 269 270 271 270 269 269 269 268 268 269 270 271 272 271 271 271 271 272 273 274 275 276 276 277 277 277 278 278 277 277 277 277 277 278 278 278 278 277 277 277 276 275 275 275 275 275 275 276 276 277 278 278 278 278 278 279 279 279 279 279 279 279 279 279 279 279 279 279 279 278 278 277 276
274 271 268 266 264 262 260 259 260 262 264 265 265 264 264 265 266 266 268 270 271 271 269 268 267 267 269 269 268 269 270 270 270 270 271 272 273 273 273 273 273 273 274 275 276 276 277 278 278 279 279 279 279 278 278 277 277 277 277 278 278 278 277 277 277 276 276 276 276 277 277 277 278 279 279 279 279 280 280 281 281 281 281 280 280 280 280 279 279 279 279 279 279 278 278 278 277
270 267 263 261 261 263 263 264 266 267 268 269 269 268 268 269 269 269 269 270 270 270 269 268 267 266 266 268 268 268 270 271 273 273 273 273 273 273 273 273 274 274 275 276 276 277 279 279 279 279 280 280 280 280 279 278 278 277 277 277 278 278 278 278 278 278 278 277 277 277 278 278 278 279 280 280 281 281 281 281 282 281 281 281 280 280 280 279 279 279 279 279 278 278 278 277 277
267 266 265 266 269 271 271 270 270 269 269 269 270 271 271 271 272 272 271 270 269 269 269 268 267 267 267 268 269 270 271 272 273 274 274 274 274 274 274 274 274 275 276 276 277 278 279 279 280 280 280 281 281 281 280 280 279 278 278 278 278 279 279 279 279 279 279 278 278 278 279 279 279 280 280 281 281 281 281 281 281 281 280 280 280 280 280 279 279 279 279 278 278 277 277 277 276
276 277 277 277 278 277 275 274 273 271 271 271 271 271 271 272 273 274 273 273 272 272 272 271 269 269 270 270 271 272 272 272 272 273 274 274 274 274 274 275 275 276 276 276 277 277 278 279 280 280 281 281 281 281 281 280 280 280 280 279 280 280 280 280 280 280 279 279 279 280 280 280 280 280 281 281 281 281 281 280 280 280 280 280 280 280 280 279 279 279 279 278 278 277 277 276 276
294 291 288 285 283 281 279 277 275 274 273 273 273 272 272 272 273 274 275 273 273 274 273 273 272 272 273 273 272 272 272 272 272 272 274 274 274 275 275 276 277 277 277 277 277 277 278 279 279 280 281 281 281 281 281 281 281 281 281 281 281 281 281 281 281 281 280 280 280 280 280 280 280 280 281 281 281 281 281 280 280 280 280 280 280 280 280 280 280 279 279 278 278 277 276 276 275
300 294 289 286 284 281 279 277 274 273 273 273 274 274 274 273 272 273 274 273 272 272 272 272 273 273 273 273 273 273 273 273 273 274 275 275 276 277 277 278 278 279 279 279 279 279 279 279 279 280 281 281 281 281 281 281 281 281 281 281 281 281 281 281 281 281 281 281 281 281 281 281 281 281 281 281 281 281 281 281 281 280 281 281 281 280 280 280 279 279 278 278 277 276 276 275 275
295 290 285 283 281 279 277 276 274 273 273 273 274 276 275 273 271 270 271 272 271 270 271 272 273 273 273 273 273 273 273 273 274 275 276 276 277 278 279 279 280 280 280 280 280 280 280 279 279 280 280 280 280 280 280 281 281 281 281 281 281 281 281 281 281 281 281 281 281 281 281 281 280 280 280 280 280 280 280 280 280 280 280 280 280 280 280 279 279 278 278 277 277 276 276 275 275
290 287 284 281 278 277 278 278 275 274 273 273 274 277 278 276 272 270 269 271 272 271 271 272 272 273 273 273 273 273 274 274 275 276 276 277 277 278 278 278 278 279 279 279 279 279 279 280 280 280 280 279 279 280 280 281 281 281 281 281 281 281 281 281 281 281 281 281 281 281 281 280 280 280 280 280 280 280 280 280 280 280 280 280 280 280 279 279 279 278 278 278 277 277 277 276 276
288 286 286 283 279 275 276 278 278 276 275 274 274 276 279 280 279 275 272 271 272 273 272 272 272 273 273 273 274 274 275 275 275 275 275 275 275 276 276 276 276 277 278 278 279 279 280 280 280 281 281 280 281 281 281 281 282 282 282 282 282 282 282 281 281 281 281 281 281 281 280 280 280 280 280 280 280 280 280 280 280 280 280 280 279 279 279 279 279 279 278 278 278 277 277 277 277
287 286 286 286 285 281 277 278 280 280 278 277 276 275 276 280 281 281 279 276 274 274 274 273 273 273 274 275 275 275 275 275 275 275 275 275 275 276 276 276 277 277 278 279 279 280 280 281 281 281 281 281 282 282 282 282 282 282 282 282 282 281 281 281 281 281 281 280 280 280 280 280 280 280 280 280 280 280 280 280 280 280 280 280 279 279 279 279 278 278 278 278 278 277 277 277 277
289 288 287 286 287 286 283 281 280 281 281 280 279 277 277 277 279 281 281 280 279 278 277 277 276 275 275 276 276 276 276 277 277 277 277 277 277 277 278 278 278 279 279 279 279 280 280 280 280 280 281 281 281 281 281 281 281 281 281 281 281 281 281 281 280 280 280 280 280 280 280 279 279 280 280 280 280 280 280 281 281 281 280 280 280 279 279 279 279 278 278 278 278 278 278 278 278
286 286 285 284 283 283 283 281 279 278 278 279 278 277 277 277 277 279 280 280 280 280 280 280 279 279 278 278 277 278 278 278 278 278 278 278 278 278 278 279 279 279 279 279 279 279 279 279 279 280 280 280 280 280 280 280 280 280 279 280 280 280 280 280 280 280 280 279 279 279 279 280 280 280 280 280 281 281 281 281 281 281 281 280 280 280 280 279 279 279 279 278 278 278 278 278 278
282 281 280 280 279 278 279 280 280 279 278 278 278 277 277 277 277 277 278 278 278 278 279 279 279 279 279 279 278 278 278 278 279 279 279 279 279 280 280 280 280 280 280 280 280 280 280 280 280 280 280 279 279 280 279 279 279 279 279 279 280 279 279 279 279 279 279 279 279 280 280 280 280 280 280 281 281 281 281 281 281 281 280 280 280 280 280 280 280 279 279 279 278 278 278 278 278
281 281 280 280 281 279 278 278 279 281 281 281 280 280 279 278 278 278 277 277 277 276 276 276 277 277 277 278 278 278 278 279 279 280 280 280 280 281 281 281 281 281 281 281 281 281 281 281 281 281 280 280 280 280 279 279 279 279 279 280 280 279 279 279 279 279 280 280 280 280 280 280 280 280 281 281 280 280 280 280 280 280 279 279 280 280 280 280 279 279 279 279 279 279 279 279 278
280 280 280 281 282 282 281 280 279 279 281 282 282 282 281 280 279 279 279 278 278 277 277 276 276 276 276 277 277 277 278 278 279 279 280 280 280 280 281 281 281 281 282 282 282 282 282 281 281 281 281 280 280 279 279 280 280 280 281 281 281 281 281 281 281 281 281 281 281 281 280 280 280 280 280 280 280 279 279 279 279 279 279 279 280 280 280 280 279 279 279 279 279 279 279 279 279
281 280 280 280 280 281 282 281 281 280 280 282 283 283 283 282 281 280 279 279 279 278 278 278 278 278 278 278 278 278 278 279 279 279 279 280 280 281 281 281 282 282 282 282 282 282 282 282 281 281 281 280 280 280 281 281 281 282 282 282 282 282 282 282 282 282 282 282 281 281 281 281 281 281 281 281 280 280 280 280 280 280 280 280 280 280 280 280 279 279 279 279 279 279 279 279 279
283 283 283 282 282 282 283 283 282 281 281 281 282 283 284 283 281 280 279 278 278 278 278 278 278 278 279 279 279 279 280 280 280 280 280 280 281 281 281 282 282 282 282 282 282 281 281 281 281 281 281 281 281 281 282 282 282 282 282 282 283 283 283 283 283 283 283 283 282 282 283 283 282 282 282 282 282 282 281 281 281 281 281 281 280 280 280 279 279 279 279 279 279 279 279 279 278
286 286 286 285 285 284 285 286 285 284 283 283 283 283 284 284 282 281 280 279 278 278 278 278 278 279 279 279 280 280 280 280 280 280 281 281 281 281 281 281 281 281 281 280 280 280 279 279 279 279 280 280 280 281 281 282 282 282 283 283 283 283 283 283 283 283 283 283 283 283 283 283 283 283 282 282 282 282 281 281 281 281 281 280 280 280 280 279 279 279 279 280 280 280 279 278 278
288 288 288 287 287 286 285 286 288 288 287 286 285 285 285 285 284 283 281 280 280 279 279 279 279 280 280 280 280 280 280 281 281 281 281 281 281 280 280 280 279 279 278 278 278 278 278 278 279 279 280 280 281 281 282 282 282 282 282 282 283 283 283 283 284 284 284 284 284 284 284 283 283 283 282 282 282 282 281 281 281 281 281 280 280 280 280 280 280 280 280 281 281 280 279 279 278
292 292 291 290 289 289 288 287 287 288 288 287 286 285 285 285 285 284 283 282 282 282 282 282 282 282 282 282 281 281 281 281 281 281 280 280 279 279 278 278 277 276 276 276 276 277 277 278 278 279 279 280 280 281 281 282 282 282 283 283 283 284 284 284 284 284 284 284 284 284 284 283 283 283 282 282 282 282 282 282 281 281 281 281 281 281 281 281 281 281 282 282 281 281 280 280 279
295 294 293 292 292 291 290 290 289 288 288 288 287 286 285 285 284 283 283 284 285 285 285 285 285 285 284 283 282 281 281 281 280 280 279 278 278 278 277 277 277 277 277 277 277 277 277 277 278 278 278 279 279 280 281 282 282 283 283 284 284 284 284 284 284 284 284 284 283 283 283 283 283 283 283 283 283 283 283 283 283 283 283 283 283 282 282 282 282 283 283 282 282 282 281 281 280
294 293 293 292 292 292 291 291 290 290 289 288 287 286 285 284 283 282 283 284 285 286 286 286 285 284 283 282 281 281 281 280 280 279 279 279 278 278 278 278 278 278 278 278 278 278 277 277 277 278 278 279 280 281 281 282 282 282 282 282 282 282 282 282 282 282 282 282 282 282 283 283 283 283 284 284 284 284 284 284 284 284 284 284 284 284 284 284 284 284 284 283 283 283 282 282 281
295 294 294 294 293 293 293 292 292 292 291 290 289 288 287 286 285 284 285 285 286 286 286 285 284 283 282 281 281 282 281 281 281 280 280 280 279 279 279 279 278 278 278 278 278 278 278 278 278 279 279 280 281 281 281 281 281 280 280 280 279 279 279 279 280 280 280 280 280 281 281 282 282 283 283 283 284 284 284 284 284 284 284 284 284 284 284 284 284 284 285 285 284 284 283 282 282
297 297 296 295 295 295 294 294 294 294 293 292 291 290 290 289 288 288 288 288 288 287 286 286 285 285 284 284 284 284 283 282 282 281 280 280 280 280 279 279 279 279 279 279 279 279 279 280 280 280 281 281 280 280 280 279 279 279 278 278 278 278 278 278 278 278 278 278 279 279 280 280 281 281 281 281 282 282 282 282 283 283 283 283 283 283 283 283 284 284 284 284 284 283 283 283 282
299 299 298 298 297 297 297 297 297 297 296 295 294 293 293 292 291 291 292 291 291 289 288 287 286 286 286 285 285 284 283 282 282 281 281 281 281 280 280 280 280 279 279 279 279 280 280 280 281 281 281 280 279 278 277 277 277 277 277 277 277 277 277 277 277 277 277 277 278 278 278 278 279 279 278 278 278 278 279 279 280 281 281 281 281 282 282 283 283 283 284 284 283 283 282 282 282
301 300 300 300 300 300 300 299 299 299 298 297 297 296 295 295 294 294 295 294 294 292 291 289 288 288 287 287 286 285 285 284 284 283 283 283 282 282 281 281 280 280 280 280 280 280 280 281 281 281 280 279 278 277 277 276 276 275 275 275 275 275 276 276 276 276 276 277 277 277 278 278 277 277 276 276 275 275 275 276 277 278 279 280 281 281 281 282 282 283 283 283 283 282 282 282 282
304 303 302 301 300 300 300 300 300 299 298 298 297 296 297 296 296 297 297 297 296 295 295 294 293 292 291 290 290 290 289 289 288 288 287 287 286 286 285 284 283 282 282 281 281 281 281 281 281 281 281 280 280 279 279 278 277 276 275 274 274 274 274 274 274 275 275 275 275 276 276 277 277 277 276 276 274 273 273 273 273 274 276 278 279 280 280 281 281 282 282 282 282 282 281 281 281
305 304 303 302 300 300 299 298 298 297 296 294 294 295 295 295 295 296 295 295 295 295 295 295 295 294 293 293 292 292 292 291 291 291 291 290 290 290 289 289 288 287 286 284 283 283 283 283 282 282 281 281 281 281 281 280 279 278 277 276 275 274 274 274 274 273 273 274 274 275 275 275 276 277 277 277 276 274 273 272 271 271 273 275 277 279 280 280 281 281 281 282 282 281 281 281 281
302 301 300 300 300 300 299 297 295 293 291 289 288 291 292 291 292 293 292 292 292 292 293 293 294 295 295 294 294 294 293 293 293 293 293 292 292 292 291 291 291 290 289 288 286 285 285 285 284 284 283 283 283 283 282 281 280 280 279 278 277 276 276 275 275 274 273 273 274 276 277 276 276 276 276 276 276 276 275 273 271 270 270 272 274 277 279 280 280 281 281 281 281 281 281 281 280
300 299 299 299 299 299 299 298 296 293 291 287 284 285 286 286 288 289 289 289 289 290 290 291 292 293 294 294 295 295 295 295 295 295 295 294 293 293 292 292 291 291 290 289 288 287 287 286 285 285 284 284 284 283 283 282 282 281 281 280 279 278 277 276 276 275 274 274 275 276 277 277 277 276 275 275 276 276 275 274 273 271 270 270 271 273 276 278 280 280 280 281 281 281 281 281 280
300 299 299 299 299 299 299 298 297 295 295 292 287 284 283 283 285 286 286 286 286 287 288 288 289 290 291 292 293 294 295 296 297 297 296 296 294 293 292 292 291 290 290 289 289 288 287 286 286 285 285 284 283 282 282 282 282 282 282 282 282 281 279 277 277 276 276 276 277 277 278 278 278 277 276 275 275 275 275 274 273 272 271 270 269 270 273 276 278 279 280 280 280 281 281 281 280
304 303 302 301 301 301 300 298 297 296 296 295 291 289 287 285 286 285 284 284 284 284 285 286 286 287 288 289 291 292 293 294 295 295 295 295 294 293 292 292 291 291 290 290 289 288 288 287 286 285 285 284 283 282 281 281 280 281 281 282 283 282 281 279 277 277 277 277 277 278 278 277 278 277 276 275 274 274 274 273 273 273 272 271 270 269 270 272 275 277 279 279 280 280 280 280 280
311 310 309 306 305 303 302 300 298 296 296 295 293 291 290 289 288 286 284 283 282 282 282 282 283 284 286 287 288 289 290 291 292 292 292 292 292 292 292 291 291 291 291 290 290 289 288 287 286 285 284 284 283 282 281 280 279 280 280 281 282 282 281 280 279 278 277 277 277 277 277 277 277 276 276 275 274 273 273 273 272 272 272 272 271 269 269 269 272 274 276 278 279 280 280 280 280
318 316 314 311 308 305 303 303 301 300 300 299 297 296 295 294 293 291 289 287 285 283 281 281 281 282 283 284 285 286 286 287 287 288 288 289 289 289 290 290 290 290 290 289 289 289 288 287 286 286 285 284 283 283 282 280 279 279 279 280 280 280 280 280 280 279 278 277 276 276 275 275 275 275 275 274 273 272 271 271 271 271 271 271 271 271 269 269 269 271 273 276 278 279 279 280 279
320 318 316 314 311 309 308 308 307 305 305 304 302 301 300 299 297 295 295 294 293 291 289 287 286 286 286 286 285 284 284 284 284 284 285 285 286 286 287 287 287 287 286 286 287 287 287 287 286 286 285 284 284 284 283 282 281 280 279 278 278 278 278 278 279 278 278 277 276 275 274 274 273 273 273 272 271 270 270 270 270 270 269 269 270 271 271 269 269 269 271 273 276 278 279 279 279
321 320 318 315 313 312 311 311 311 309 308 305 302 301 300 300 299 298 299 299 299 299 299 298 297 295 293 291 289 288 287 287 287 286 286 286 285 285 285 285 285 284 283 283 283 283 284 284 285 285 284 284 284 283 283 283 283 282 280 278 276 276 276 276 277 277 277 277 276 275 274 273 272 272 271 271 270 269 268 268 268 268 268 268 269 270 271 271 270 269 269 272 274 277 278 279 279
324 322 321 319 318 316 313 311 308 306 304 301 300 300 301 301 301 301 302 303 303 303 304 304 303 302 300 299 297 297 296 295 294 293 292 290 289 288 286 285 284 283 282 282 281 281 282 283 284 285 285 285 285 284 284 283 283 282 280 278 276 275 274 274 275 275 275 275 275 274 273 273 272 270 270 270 269 268 268 267 267 267 268 268 268 269 270 271 271 270 270 271 273 276 278 279 279